Location: Unspecified
(51.5147°N, 7.4673°E)
Time: 08:40:23
(UTC+01:00)

Explorer 7 - Pass Details

Date: 17 February 2026
Orbit: 430 x 542 km, 50.2° (Epoch: 7 March)

Event Time Altitude Azimuth Distance (km) Brightness Sun altitude
Rises 16:14:31 0° 225° (SW) 2,435 12.1 12.1°
Reaches altitude 10° 16:16:45 10° 215° (SW) 1,584 10.9 11.8°
Maximum altitude 16:19:56 30° 152° (SSE) 848 8.0 11.4°
Drops below altitude 10° 16:23:14 10° 89° (E) 1,647 8.8 11.0°
Sets 16:25:36 0° 79° (E) 2,553 9.7 10.7°
